Moses Lake, WA

7:18 PM PDT on July 20, 2017 (GMT -0700)
Grant County International

Weather History for KMWH - January, 2013

Change the Weather History Date:

Monday, January 7, 2013

  Actual Average Record
Temperature  
Mean Temperature 27 °F 29 °F  
Max Temperature 32 °F 35 °F 55 °F (2002)
Min Temperature 22 °F 22 °F -10 °F (1982)
Degree Days  
Heating Degree Days 38 36  
Month to date heating degree days 268 258  
Since 1 July heating degree days 2476 2845  
Cooling Degree Days 0 0  
Month to date cooling degree days 0 0  
Year to date cooling degree days 0 0  
Moisture  
Dew Point 25 °F    
Average Humidity 93    
Maximum Humidity 100    
Minimum Humidity 85    
Precipitation  
Precipitation 0.09 in 0.05 in 0.28 in (2006)
Month to date precipitation 0.11 0.35  
Year to date precipitation 0.11 0.35  
Sea Level Pressure  
Sea Level Pressure 29.97 in    
Wind  
Wind Speed 3 mph (North)    
Max Wind Speed 10 mph    
Max Gust Speed 12 mph    
Visibility 2 miles    
Events Fog , Snow    
T = Trace of Precipitation, MM = Missing Value Source: NWS Daily Summary

Daily Weather History Graph

Daily Weather History Graph

Search for Another Location

Airport or City:

Trip Planner

Search our weather history database for the weather conditions in past years. The results will help you decide how hot, cold, wet, or windy it might be!

Date:

Astronomy

Jan. 07, 2013 Rise Set
Actual Time 7:42 AM PST 4:24 PM PST
Civil Twilight 7:07 AM PST 4:59 PM PST
Nautical Twilight 6:29 AM PST 5:38 PM PST
Astronomical Twilight 5:52 AM PST 6:15 PM PST
Moon 3:08 AM PST (1/7) 12:42 PM PST (1/7)
Length of Visible Light 9h 52m
Length of Day
8h 41m
Waning Crescent, 21% of the Moon is Illuminated
Jan 7
Waning Crescent
Jan 11
New
Jan 18
First Quarter
Jan 26
Full
Feb 3
Last Quarter

Hourly Weather History & Observations

Time (PST) Temp. Windchill Dew Point Humidity Pressure Visibility Wind Dir Wind Speed Gust Speed Precip Events Conditions
12:28 AM 28.4 °F 24.6 °F 24.8 °F 86% 30.06 in 3.0 mi NNW 3.5 mph - N/A Snow Light Snow
12:41 AM 28.4 °F 24.6 °F 24.8 °F 86% 30.05 in 3.0 mi North 3.5 mph - 0.00 in Snow Light Snow
12:52 AM 28.0 °F 24.2 °F 25.0 °F 88% 30.09 in 3.0 mi North 3.5 mph - 0.00 in Snow Light Snow
1:11 AM 28.4 °F 23.3 °F 24.8 °F 86% 30.04 in 4.0 mi North 4.6 mph - 0.00 in Snow Light Snow
1:23 AM 28.4 °F 23.3 °F 24.8 °F 86% 30.04 in 3.0 mi North 4.6 mph - 0.00 in Snow Light Snow
1:39 AM 28.4 °F 23.3 °F 24.8 °F 86% 30.04 in 2.5 mi North 4.6 mph - 0.00 in Snow Light Snow
1:46 AM 28.4 °F 24.6 °F 24.8 °F 86% 30.04 in 3.0 mi North 3.5 mph - 0.00 in Snow Light Snow
1:47 AM 28.0 °F 24.2 °F 25.0 °F 88% 30.08 in 4.0 mi North 3.5 mph - 0.00 in Snow Light Snow
2:52 AM 28.0 °F 22.8 °F 25.0 °F 88% 30.08 in 4.0 mi NNW 4.6 mph - 0.00 in Snow Light Snow
3:41 AM 28.4 °F - 26.6 °F 93% 30.02 in 2.0 mi Calm Calm - 0.00 in Snow Light Snow
3:52 AM 28.0 °F - 25.0 °F 88% 30.05 in 2.0 mi Calm Calm - 0.00 in Snow Light Snow
4:24 AM 28.4 °F - 26.6 °F 93% 29.99 in 3.0 mi Calm Calm - N/A Snow Light Snow
4:36 AM 28.4 °F - 24.8 °F 86% 29.99 in 2.5 mi Calm Calm - 0.01 in Snow Light Snow
4:52 AM 28.0 °F - 26.1 °F 92% 30.02 in 2.5 mi Calm Calm - 0.01 in Snow Light Snow
5:02 AM 28.4 °F - 26.6 °F 93% 29.98 in 2.5 mi Calm Calm - 0.00 in Snow Light Snow
5:09 AM 28.4 °F - 26.6 °F 93% 29.97 in 2.5 mi Calm Calm - 0.00 in Snow Light Snow
5:32 AM 28.4 °F - 24.8 °F 86% 29.97 in 3.0 mi Calm Calm - 0.00 in Snow Light Snow
5:52 AM 28.0 °F - 25.0 °F 88% 30.00 in 3.0 mi Calm Calm - 0.00 in Snow Light Snow
6:00 AM 28.4 °F - 24.8 °F 86% 29.95 in 2.5 mi Calm Calm - N/A Snow Light Snow
6:28 AM 28.4 °F - 24.8 °F 86% 29.94 in 2.0 mi Calm Calm - N/A Snow Light Snow
6:39 AM 28.4 °F - 24.8 °F 86% 29.94 in 1.5 mi Calm Calm - 0.01 in Snow Light Snow
6:52 AM 28.0 °F - 25.0 °F 88% 29.98 in 1.8 mi Calm Calm - 0.02 in Snow Light Snow
7:08 AM 28.4 °F - 24.8 °F 86% 29.93 in 2.0 mi Calm Calm - 0.00 in Snow Light Snow
7:20 AM 28.4 °F 24.6 °F 24.8 °F 86% 29.94 in 2.0 mi NW 3.5 mph - 0.00 in Snow Light Snow
7:32 AM 28.4 °F 24.6 °F 24.8 °F 86% 29.94 in 1.5 mi WNW 3.5 mph - 0.01 in Snow Light Snow
7:52 AM 28.0 °F - 25.0 °F 88% 29.98 in 1.0 mi Calm Calm - 0.03 in Snow Light Snow
8:07 AM 28.4 °F - 24.8 °F 86% 29.92 in 0.5 mi Calm Calm - 0.01 in Fog , Snow Snow
8:52 AM 28.0 °F - 25.0 °F 88% 29.96 in 3.0 mi Calm Calm - 0.03 in Snow Light Snow
9:30 AM 28.4 °F - 26.6 °F 93% 29.91 in 5.0 mi Calm Calm - N/A   Overcast
9:52 AM 28.9 °F 25.2 °F 25.0 °F 85% 29.95 in 6.0 mi WNW 3.5 mph - 0.00 in   Overcast
10:21 AM 28.4 °F - 24.8 °F 86% 29.90 in 6.0 mi Calm Calm - N/A   Overcast
10:29 AM 30.2 °F - 24.8 °F 80% 29.90 in 7.0 mi Calm Calm - N/A   Overcast
10:52 AM 30.0 °F - 26.1 °F 85% 29.94 in 7.0 mi Calm Calm - N/A   Overcast
11:52 AM 30.0 °F - 26.1 °F 85% 29.92 in 7.0 mi Calm Calm - N/A   Overcast
12:52 PM 30.0 °F 25.2 °F 27.0 °F 88% 29.89 in 5.0 mi SSE 4.6 mph - N/A   Overcast
1:03 PM 30.2 °F 26.7 °F 26.6 °F 86% 29.85 in 4.0 mi South 3.5 mph - N/A   Overcast
1:52 PM 30.9 °F - 28.0 °F 89% 29.90 in 3.0 mi Calm Calm - N/A   Overcast
2:03 PM 30.2 °F 26.7 °F 28.4 °F 93% 29.86 in 2.5 mi SE 3.5 mph - N/A   Overcast
2:29 PM 30.2 °F 25.4 °F 28.4 °F 93% 29.86 in 0.8 mi Variable 4.6 mph - N/A   Overcast
2:52 PM 30.9 °F 25.2 °F 28.9 °F 92% 29.90 in 0.2 mi SSE 5.8 mph - N/A Fog Light Freezing Fog
3:52 PM 30.9 °F 27.5 °F 30.0 °F 96% 29.91 in 0.2 mi ESE 3.5 mph - N/A Fog Light Freezing Fog
4:52 PM 32.0 °F - 30.0 °F 92% 29.91 in 0.2 mi Calm Calm - N/A Fog Fog
5:21 PM 30.2 °F 25.4 °F 28.4 °F 93% 29.88 in 0.5 mi North 4.6 mph - N/A Fog Light Freezing Fog
5:30 PM 28.4 °F 20.4 °F 26.6 °F 93% 29.88 in 0.5 mi NNE 8.1 mph - N/A Fog Light Freezing Fog
5:43 PM 28.4 °F 21.2 °F 26.6 °F 93% 29.89 in 0.2 mi North 6.9 mph - N/A Fog Light Freezing Fog
5:52 PM 28.9 °F 21.9 °F 27.0 °F 92% 29.94 in 0.2 mi North 6.9 mph - N/A Fog Light Freezing Fog
6:52 PM 28.9 °F 25.2 °F 28.0 °F 96% 29.94 in 0.2 mi NNE 3.5 mph - N/A Fog Light Freezing Fog
7:52 PM 30.0 °F 22.4 °F 27.0 °F 88% 29.98 in 0.2 mi North 8.1 mph - N/A Fog Light Freezing Fog
8:52 PM 28.9 °F 21.9 °F 27.0 °F 92% 29.99 in 0.2 mi NNE 6.9 mph - N/A Fog Light Freezing Fog
9:20 PM 28.4 °F 19.7 °F 26.6 °F 93% 29.95 in 0.5 mi NNW 9.2 mph - N/A Fog Light Freezing Fog
9:39 PM 30.2 °F 26.7 °F 26.6 °F 86% 29.97 in 0.2 mi Variable 3.5 mph - N/A Fog Light Freezing Fog
9:52 PM 30.0 °F 24.1 °F 27.0 °F 88% 30.02 in 0.2 mi North 5.8 mph - N/A Fog Light Freezing Fog
10:49 PM 24.8 °F 17.9 °F 21.2 °F 86% 30.00 in 0.5 mi North 5.8 mph - N/A Fog Light Freezing Fog
10:52 PM 23.0 °F 17.0 °F 21.0 °F 92% 30.05 in 0.5 mi North 4.6 mph - N/A Fog Light Freezing Fog
11:17 PM 23.0 °F - 19.4 °F 86% 30.01 in 1.0 mi Calm Calm - N/A   Mist
11:27 PM 23.0 °F 15.8 °F 19.4 °F 86% 30.02 in 0.8 mi NNW 5.8 mph - N/A   Mist
11:31 PM 23.0 °F - 19.4 °F 86% 30.02 in 1.2 mi Calm Calm - N/A   Scattered Clouds
11:38 PM 21.2 °F 14.9 °F 19.4 °F 93% 30.03 in 1.5 mi North 4.6 mph - N/A   Mostly Cloudy
11:44 PM 21.2 °F - 19.4 °F 93% 30.03 in 2.0 mi Calm Calm - N/A   Scattered Clouds
11:48 PM 21.2 °F - 19.4 °F 93% 30.03 in 4.0 mi Calm Calm - N/A   Mostly Cloudy
11:52 PM 21.9 °F - 19.0 °F 89% 30.08 in 4.0 mi Calm Calm - N/A   Mostly Cloudy